Location: Arborea
(39.7744°N, 8.5819°E)
Time: 23:37:39
(UTC+00:00)

CZ-2C DEB - Pass Details

Date: 22 August 2022
Orbit: 681 x 928 km, 97.9° (Epoch: 29 September)

Event Time Altitude Azimuth Distance (km) Brightness Sun altitude
Rises 19:45:07 0° 36° (NE) 3,328 ? -17.1°
Reaches altitude 10° 19:48:52 10° 63° (ENE) 2,449 ? -17.7°
Enters shadow 19:49:17 11° 67° (ENE) 2,388 ? -17.8°
